Starlink 30116

operational
NORAD ID: 57465 Int'l Des: 2023-107 Owner: SPXS Country: US Constellation: starlink
LEOCIRCULAR

About Starlink 30116

Description loading...

Live Position

Loading 3D Globe...

Upcoming Passes

Altitude History

Altitude vs Time

uPlot chart will show altitude changes over time

Two-Line Element Set

1 57465U 23107J 25353.25472728 .00000202 00000-0 30022-4 0 9990
2 57465 43.0044 56.0491 0001489 271.1093 88.9579 15.02539033133019
Epoch: Dec 19, 2025 • Age: 24 hours

Current Status

Altitude 559.0 km
Velocity 7.59 km/s
Sub-Earth Point 21.52°N, 106.46°W
Launch Date Jul 28, 2023
Age 2.3 years
Type internet

Technical Details

Classification Payload
Mass 730.00 kg
Dry Mass 700.00 kg
Total Mass 730.00 kg
Length 0.30 m
Diameter 4.10 m
Span 29.00 m
Shape Box + pan
Manufacturer SPXS
Bus Type Starlink V2M
Phase Status In Orbit
Owner/State SPXS/US

Large Constellations

Loading constellations...